Hot Springs, VA

4:04 AM EDT on August 24, 2016 (GMT -0400)
Ingalls

Weather History for KHSP - March, 2014

Change the Weather History Date:

Saturday, March 15, 2014

  Actual Average Record
Temperature  
Mean Temperature 46 °F -  
Max Temperature 50 °F 41 °F 71 °F (2002)
Min Temperature 41 °F 26 °F 14 °F (1997)
Degree Days  
Heating Degree Days 20    
Moisture  
Dew Point 25 °F    
Average Humidity 48    
Maximum Humidity 66    
Minimum Humidity 32    
Precipitation  
Precipitation 0.00 in - - ()
Sea Level Pressure  
Sea Level Pressure 29.98 in    
Wind  
Wind Speed 19 mph (West)    
Max Wind Speed 29 mph    
Max Gust Speed 43 mph    
Visibility 10 miles    
Events      
Averages and records for this station are not official NWS values.
T = Trace of Precipitation, MM = Missing Value Source: NWS Daily Summary

Daily Weather History Graph

Daily Weather History Graph

Search for Another Location

Airport or City:

Trip Planner

Search our weather history database for the weather conditions in past years. The results will help you decide how hot, cold, wet, or windy it might be!

Date:

Astronomy

Mar. 15, 2014 Rise Set
Actual Time 7:30 AM EDT 7:26 PM EDT
Civil Twilight 7:04 AM EDT 7:52 PM EDT
Nautical Twilight 6:33 AM EDT 8:23 PM EDT
Astronomical Twilight 6:02 AM EDT 8:54 PM EDT
Moon 6:44 PM EDT (3/15) 6:40 AM EDT (3/15)
Length of Visible Light 12h 48m
Length of Day
11h 56m
Waxing Gibbous, 99% of the Moon is Illuminated
Mar 15
Waxing Gibbous
Mar 16
Full
Mar 23
Last Quarter
Mar 30
New
Apr 7
First Quarter

Hourly Weather History & Observations

Time (EDT) Temp. Windchill Dew Point Humidity Pressure Visibility Wind Dir Wind Speed Gust Speed Precip Events Conditions
12:15 AM 42.8 °F 34.3 °F 24.8 °F 49% 29.98 in 10.0 mi West 19.6 mph 33.4 mph N/A   Overcast
12:30 AM 41.0 °F 32.5 °F 24.8 °F 53% 29.97 in 10.0 mi West 17.3 mph 25.3 mph N/A   Overcast
12:55 AM 41.0 °F 32.5 °F 26.6 °F 57% 29.96 in 10.0 mi West 17.3 mph 25.3 mph N/A   Overcast
12:56 AM 41.0 °F 32.8 °F 26.6 °F 57% 29.96 in 10.0 mi West 16.1 mph 25.3 mph N/A   Overcast
1:36 AM 41.0 °F 33.5 °F 28.4 °F 61% 29.94 in 10.0 mi West 13.8 mph 21.9 mph N/A   Overcast
1:55 AM 42.8 °F 35.1 °F 28.4 °F 57% 29.94 in 10.0 mi West 16.1 mph 21.9 mph N/A   Overcast
2:15 AM 42.8 °F 35.1 °F 24.8 °F 49% 29.93 in 10.0 mi West 16.1 mph 20.7 mph N/A   Overcast
2:35 AM 42.8 °F 34.5 °F 24.8 °F 49% 29.93 in 10.0 mi West 18.4 mph 23.0 mph N/A   Overcast
2:50 AM 42.8 °F 34.0 °F 24.8 °F 49% 29.92 in 10.0 mi West 20.7 mph 25.3 mph N/A   Overcast
3:15 AM 42.8 °F 33.5 °F 24.8 °F 49% 29.91 in 10.0 mi West 23.0 mph 28.8 mph N/A   Overcast
3:35 AM 42.8 °F 34.3 °F 26.6 °F 53% 29.90 in 10.0 mi West 19.6 mph 29.9 mph N/A   Overcast
3:55 AM 42.8 °F 33.1 °F 26.6 °F 53% 29.90 in 10.0 mi West 25.3 mph 29.9 mph N/A   Overcast
4:36 AM 42.8 °F 34.3 °F 26.6 °F 53% 29.89 in 10.0 mi West 19.6 mph 27.6 mph N/A   Mostly Cloudy
4:56 AM 42.8 °F 34.3 °F 28.4 °F 57% 29.89 in 10.0 mi West 19.6 mph 28.8 mph N/A   Overcast
5:10 AM 42.8 °F 35.1 °F 28.4 °F 57% 29.89 in 10.0 mi West 16.1 mph 26.5 mph N/A   Overcast
5:35 AM 42.8 °F 35.1 °F 28.4 °F 57% 29.89 in 10.0 mi West 16.1 mph 25.3 mph N/A   Overcast
5:55 AM 42.8 °F 33.5 °F 28.4 °F 57% 29.89 in 10.0 mi West 23.0 mph 31.1 mph N/A   Overcast
6:15 AM 42.8 °F 34.8 °F 28.4 °F 57% 29.90 in 10.0 mi West 17.3 mph 28.8 mph N/A   Mostly Cloudy
6:35 AM 42.8 °F 34.0 °F 28.4 °F 57% 29.90 in 10.0 mi West 20.7 mph 27.6 mph N/A   Mostly Cloudy
6:55 AM 42.8 °F 33.5 °F 30.2 °F 61% 29.90 in 10.0 mi West 23.0 mph 32.2 mph N/A   Overcast
7:15 AM 42.8 °F 33.8 °F 30.2 °F 61% 29.90 in 10.0 mi West 21.9 mph 31.1 mph N/A   Mostly Cloudy
7:35 AM 42.8 °F 33.8 °F 30.2 °F 61% 29.90 in 10.0 mi West 21.9 mph 27.6 mph N/A   Mostly Cloudy
7:55 AM 42.8 °F 33.8 °F 30.2 °F 61% 29.90 in 10.0 mi West 21.9 mph 29.9 mph N/A   Overcast
8:10 AM 42.8 °F 34.0 °F 32.0 °F 66% 29.91 in 10.0 mi West 20.7 mph 34.5 mph N/A   Overcast
8:35 AM 42.8 °F 33.8 °F 32.0 °F 66% 29.91 in 10.0 mi West 21.9 mph 29.9 mph N/A   Overcast
8:55 AM 42.8 °F 33.8 °F 32.0 °F 66% 29.92 in 10.0 mi West 21.9 mph 31.1 mph N/A   Mostly Cloudy
9:15 AM 42.8 °F 33.8 °F 32.0 °F 66% 29.92 in 10.0 mi West 21.9 mph 32.2 mph N/A   Mostly Cloudy
9:35 AM 42.8 °F 33.1 °F 30.2 °F 61% 29.93 in 10.0 mi West 25.3 mph 36.8 mph N/A   Overcast
9:55 AM 42.8 °F 34.0 °F 30.2 °F 61% 29.93 in 10.0 mi WNW 20.7 mph 33.4 mph N/A   Overcast
10:15 AM 42.8 °F 32.5 °F 30.2 °F 61% 29.94 in 10.0 mi West 28.8 mph 42.6 mph N/A   Mostly Cloudy
10:35 AM 42.8 °F 33.5 °F 30.2 °F 61% 29.96 in 10.0 mi West 23.0 mph 31.1 mph N/A   Mostly Cloudy
10:50 AM 44.6 °F 36.6 °F 30.2 °F 57% 29.96 in 10.0 mi West 19.6 mph 29.9 mph N/A   Mostly Cloudy
11:15 AM 44.6 °F 36.1 °F 30.2 °F 57% 29.97 in 10.0 mi West 21.9 mph 29.9 mph N/A   Scattered Clouds
11:35 AM 44.6 °F 36.6 °F 28.4 °F 53% 29.97 in 10.0 mi West 19.6 mph 31.1 mph N/A   Scattered Clouds
11:55 AM 46.4 °F 38.3 °F 28.4 °F 50% 29.98 in 10.0 mi West 23.0 mph 29.9 mph N/A   Scattered Clouds
12:15 PM 44.6 °F 35.7 °F 26.6 °F 49% 29.98 in 10.0 mi West 24.2 mph 35.7 mph N/A   Scattered Clouds
12:35 PM 46.4 °F 38.1 °F 26.6 °F 46% 29.99 in 10.0 mi West 24.2 mph 31.1 mph N/A   Clear
12:55 PM 46.4 °F 38.5 °F 26.6 °F 46% 29.99 in 10.0 mi West 21.9 mph 34.5 mph N/A   Clear
1:15 PM 46.4 °F 38.5 °F 24.8 °F 43% 29.98 in 10.0 mi WNW 21.9 mph 31.1 mph N/A   Clear
1:35 PM 48.2 °F - 26.6 °F 43% 29.98 in 10.0 mi West 18.4 mph 32.2 mph N/A   Clear
1:50 PM 48.2 °F - 24.8 °F 40% 29.98 in 10.0 mi West 20.7 mph 28.8 mph N/A   Clear
2:15 PM 48.2 °F - 24.8 °F 40% 29.98 in 10.0 mi WNW 25.3 mph 33.4 mph N/A   Clear
2:35 PM 48.2 °F - 24.8 °F 40% 29.98 in 10.0 mi West 18.4 mph 28.8 mph N/A   Clear
2:55 PM 48.2 °F - 24.8 °F 40% 29.98 in 10.0 mi West 16.1 mph 28.8 mph N/A   Clear
3:15 PM 48.2 °F - 24.8 °F 40% 29.98 in 10.0 mi West 21.9 mph 29.9 mph N/A   Clear
3:35 PM 50.0 °F - 24.8 °F 37% 29.99 in 10.0 mi West 25.3 mph 31.1 mph N/A   Clear
3:55 PM 50.0 °F - 23.0 °F 35% 29.98 in 10.0 mi West 20.7 mph 28.8 mph N/A   Clear
4:15 PM 50.0 °F - 21.2 °F 32% 29.99 in 10.0 mi WNW 15.0 mph 24.2 mph N/A   Clear
4:35 PM 50.0 °F - 21.2 °F 32% 29.99 in 10.0 mi West 19.6 mph 26.5 mph N/A   Clear
4:55 PM 50.0 °F - 21.2 °F 32% 29.99 in 10.0 mi West 18.4 mph 27.6 mph N/A   Clear
5:10 PM 50.0 °F - 21.2 °F 32% 29.99 in 10.0 mi West 19.6 mph 29.9 mph N/A   Clear
5:35 PM 50.0 °F - 21.2 °F 32% 30.01 in 10.0 mi West 17.3 mph 25.3 mph N/A   Clear
5:55 PM 48.2 °F - 19.4 °F 32% 30.01 in 10.0 mi WNW 18.4 mph 25.3 mph N/A   Clear
6:15 PM 48.2 °F - 19.4 °F 32% 30.02 in 10.0 mi West 18.4 mph 27.6 mph N/A   Clear
6:55 PM 48.2 °F - 19.4 °F 32% 30.03 in 10.0 mi West 17.3 mph 24.2 mph N/A   Clear
7:15 PM 46.4 °F 39.5 °F 19.4 °F 34% 30.04 in 10.0 mi West 17.3 mph 21.9 mph N/A   Clear
7:40 PM 46.4 °F 39.2 °F 19.4 °F 34% 30.05 in 10.0 mi West 18.4 mph 24.2 mph N/A   Clear
8:15 PM 44.6 °F 37.8 °F 19.4 °F 37% 30.06 in 10.0 mi West 15.0 mph 23.0 mph N/A   Clear
8:17 PM 44.6 °F 38.4 °F 19.4 °F 37% 30.06 in 10.0 mi WNW 12.7 mph 23.0 mph N/A   Clear
8:56 PM 44.6 °F 37.8 °F 21.2 °F 39% 30.07 in 10.0 mi West 15.0 mph 21.9 mph N/A   Clear
9:00 PM 44.6 °F 37.8 °F 21.2 °F 39% 30.07 in 10.0 mi WNW 15.0 mph 21.9 mph N/A   Clear
9:15 PM 44.6 °F 37.8 °F 21.2 °F 39% 30.07 in 10.0 mi WNW 15.0 mph 20.7 mph N/A   Clear
9:35 PM 42.8 °F 36.2 °F 21.2 °F 42% 30.08 in 10.0 mi WNW 12.7 mph 18.4 mph N/A   Clear
9:55 PM 42.8 °F 38.0 °F 21.2 °F 42% 30.09 in 10.0 mi West 8.1 mph - N/A   Clear
10:15 PM 42.8 °F 38.0 °F 21.2 °F 42% 30.09 in 10.0 mi West 8.1 mph - N/A   Clear
10:30 PM 42.8 °F 37.5 °F 21.2 °F 42% 30.09 in 10.0 mi West 9.2 mph - N/A   Clear
10:55 PM 42.8 °F 38.0 °F 21.2 °F 42% 30.09 in 10.0 mi WNW 8.1 mph - N/A   Clear
11:15 PM 41.0 °F 36.4 °F 21.2 °F 45% 30.09 in 10.0 mi West 6.9 mph - N/A   Clear
11:35 PM 41.0 °F 35.2 °F 21.2 °F 45% 30.09 in 10.0 mi West 9.2 mph - N/A   Clear
11:55 PM 41.0 °F 35.8 °F 21.2 °F 45% 30.09 in 10.0 mi West 8.1 mph - N/A   Clear